Regional Weather Roundup
Issued by NWS Northern Indiana

Home | Current Version | Previous Version | Text Only | Print | Product List | Glossary Off
Versions: 1 2 3 4 5 6 7 8 9 10 11 12 13 14 15 16 17 18 19 20 21 22 23 24 25 26 27 28 29 30 31 32 33 34 35 36 37 38 39 40 41 42 43 44 45 46 47 48 49 50

000
ASUS43 KIWX 191700
RWRIWX

KIWX WEATHER ROUNDUP
NATIONAL WEATHER SERVICE NORTHERN INDIANA
100 PM EDT FRI SEP 19 2014

NOTE: "FAIR" INDICATES FEW OR NO CLOUDS BELOW 12,000 FEET WITH NO
SIGNIFICANT WEATHER AND/OR OBSTRUCTIONS TO VISIBILITY.

* THESE STATIONS ARE NOT UNDER NWS QUALITY CONTROL. THEY ALSO MAY NOT
  REPORT WEATHER SUCH AS PRECIPITATION OR FOG.

INZ001>027-191800-
NORTHERN INDIANA

CITY           SKY/WX    TMP DP  RH WIND       PRES   REMARKS
GARY*          MOSUNNY   70  50  49 SE12      30.15F
VALPARAISO     SUNNY     69  50  50 S12       30.17F
SOUTH BEND     SUNNY     69  52  54 SE8       30.18F
ELKHART*       SUNNY     66  52  59 S8        30.19F
GOSHEN         SUNNY     69  54  58 SE12      30.18F
ANGOLA*        SUNNY     66  52  59 SE7       30.19F
FORT WAYNE     MOSUNNY   66  52  60 E10       30.20F
PERU/GRISSOM   SUNNY     69  52  53 S12       30.17F

$$
INZ028>050-191800-
CENTRAL INDIANA

CITY           SKY/WX    TMP DP  RH WIND       PRES   REMARKS
LAFAYETTE      SUNNY     70  45  40 SE13      30.15F
KOKOMO*        SUNNY     70  48  46 SE14G20   30.17F
MUNCIE*        MOSUNNY   69  46  43 SE13G20   30.19F
INDIANAPOLIS   MOSUNNY   70  46  42 E15       30.16F

$$
MIZ043>046-050>051-056>058-064>065-071>073-077>080-191800-
SOUTHWEST LOWER MICHIGAN

CITY           SKY/WX    TMP DP  RH WIND       PRES   REMARKS
BATTLE CREEK   SUNNY     66  53  63 S8        30.20F
BENTON HARBOR  SUNNY     67  53  61 S9        30.17S
COLDWATER*     SUNNY     66  53  61 S7        30.19F
HILLSDALE*     SUNNY     65  51  58 S3        30.20F
HOLLAND        MOSUNNY   69  55  60 S10       30.18S
GRAND RAPIDS   MOSUNNY   66  54  65 S12       30.18F
KALAMAZOO      SUNNY     66  50  56 S7        30.19F
STURGIS*       SUNNY     66  52  59 SE10      30.18F
THREE RIVERS*  FAIR      67  53  60 S5        30.19S

$$
OHZ001>008-015>018-024>025-191800-
NORTHWEST OHIO

CITY           SKY/WX    TMP DP  RH WIND       PRES   REMARKS
DEFIANCE       SUNNY     68  51  54 MISG      30.21F
FINDLAY        SUNNY     68  46  45 E6        30.20F
TOLEDO EXPRESS MOSUNNY   63  49  60 CALM      30.21F
TOLEDO METCALF MOSUNNY   65  49  56 SE7       30.22F
LIMA           MOSUNNY   68  49  50 E7        30.21F

$$
&&


USA.gov is the U.S. government's official web portal to all federal, state and local government web resources and services.